User: anonymous   Login
Location: Newark
(13.6797°N, 8.5297°E)
Time: 13:55:43
(UTC+00:00)
Language:

A-11 Canister half - Orbit

View from above orbital plane
View from above orbital plane
View from above satellite
View from above satellite

Ground track
Ground track

The orbit data is extracted from the following two-line orbital elements,

1    53U 60009E   20019.10369287 -.00000033  00000-0  50994-3 0  9998
2    53  47.2783   2.6406 0099313 355.8795   4.1168 12.17236416650257
Epoch (UTC): 19 January 2020 02:29:19
Eccentricity: 0.0099313
inclination: 47.2783°
perigee height: 1525 km
apogee height: 1684 km
right ascension of ascending node: 2.6406°
argument of perigee: 355.8795°
revolutions per day: 12.17236416
mean anomaly at epoch: 4.1168°
orbit number at epoch: 65025

The dashed part of the orbit path shows where the satellite is in the earth's shadow,  

DLR